Temp
8 8 8 8 8 8 8 8 8 8 8 8 8 8 8 8 8 8 8 8 8 8 8 8 8 8 9 9 9 10 11 11 13 13 14 18 20 21 21 21 22 22 21 21 21 21 22 22 23 23 23 24 25 25 26 26 27 27 26 25 23 24 24 26 28 29 29 30 31 31 31 31 31 31 32 32 32 32 29 27 28 27 26 26 25 24 22 22
8 8 8 8 8 8 8 8 8 8 8 8 8 8 8 8 8 8 8 8 8 8 9 9 9 9 9 9 10 11 11 11 11 12 17 22 21 20 20 21 22 22 21 21 21 21 21 23 24 24 24 24 25 26 26 27 27 26 26 25 24 25 26 28 29 29 30 30 30 31 31 31 30 30 31 31 31 31 28 26 27 25 24 24 23 23 22 22
8 8 8 8 8 8 8 8 8 8 8 8 8 8 8 8 8 8 8 9 9 9 9 9 9 9 9 9 11 11 10 11 13 16 21 24 22 21 21 21 22 22 22 22 22 22 22 23 25 25 24 24 25 26 26 27 27 26 26 25 25 27 27 28 29 29 30 30 30 30 30 31 31 31 31 30 30 31 28 25 25 23 23 23 22 22 22 22
8 7 8 8 8 8 8 8 8 8 8 8 8 8 8 8 8 8 9 9 8 9 8 8 8 9 9 10 12 11 10 13 17 20 23 24 23 22 21 21 22 22 22 22 22 22 23 23 25 26 25 24 25 26 26 26 27 27 26 25 26 27 27 28 29 29 30 30 30 29 30 30 30 31 31 30 30 30 29 26 25 24 23 22 22 22 21 21
7 7 7 7 8 8 8 8 8 8 8 8 8 8 8 8 8 9 9 8 8 8 8 8 8 9 10 11 12 11 11 17 21 23 23 23 23 22 22 22 22 22 22 22 22 22 22 23 24 25 26 25 25 26 26 27 28 27 27 27 27 27 27 28 29 30 30 30 29 29 29 29 30 31 30 31 29 28 28 27 25 24 23 23 22 22 22 21
7 7 7 7 8 8 8 8 8 8 8 8 8 8 8 8 8 9 8 9 8 8 8 8 9 10 12 12 13 11 14 20 22 23 23 23 23 22 22 22 22 22 22 21 21 22 22 23 24 25 25 25 25 25 26 27 28 27 27 27 28 28 28 29 29 30 30 30 29 29 29 29 30 30 30 31 29 27 27 27 25 25 24 23 22 22 22 21
7 7 7 7 8 8 8 8 8 8 8 8 8 8 8 8 8 8 8 8 8 8 8 8 9 11 12 13 13 12 14 19 21 23 23 23 23 22 22 22 22 22 21 21 21 22 22 23 24 25 25 25 25 26 26 27 28 27 27 28 28 28 29 29 29 29 30 30 29 30 30 29 29 29 30 30 27 26 26 26 25 24 24 23 22 22 21 19
7 7 7 7 8 8 8 9 9 10 9 8 9 8 8 8 8 8 8 8 8 8 8 9 10 11 12 12 13 14 15 18 22 23 23 23 23 23 22 22 22 22 21 21 22 22 22 23 25 25 25 25 26 26 27 27 27 27 27 28 28 29 29 29 29 29 29 30 30 30 29 29 29 29 30 28 25 25 26 25 24 23 23 22 21 21 20 19
7 7 7 7 8 8 9 10 11 11 11 10 11 11 10 9 8 8 8 8 8 8 8 9 11 12 12 11 13 17 20 22 23 23 23 23 23 22 22 22 22 21 21 21 22 23 22 24 26 26 25 26 26 27 27 27 26 28 28 28 29 29 29 29 29 29 30 30 30 29 29 29 30 29 30 28 25 25 25 24 24 23 22 22 20 20 19 18
7 7 7 7 8 9 11 12 12 12 12 12 12 12 12 11 10 10 9 8 8 8 9 10 11 12 11 12 14 18 23 24 23 23 23 23 23 22 22 22 22 22 22 22 23 23 23 25 26 27 26 26 27 27 27 27 27 29 29 29 29 29 29 29 29 30 30 30 30 29 28 29 30 29 29 28 26 26 25 24 23 22 22 21 19 19 18 18
7 7 7 8 9 11 12 13 13 13 13 13 13 12 12 12 12 12 10 9 9 9 10 11 12 12 11 13 15 18 23 24 23 23 23 23 22 22 22 23 23 22 22 23 23 24 25 26 27 27 26 26 26 27 27 28 28 29 29 28 29 28 28 29 29 29 29 29 30 30 29 29 29 29 28 27 26 26 25 24 24 22 21 20 19 19 18 18
7 7 7 8 10 12 13 13 14 14 14 14 14 14 14 14 14 13 12 10 10 10 11 11 12 11 11 14 15 19 24 24 23 23 23 23 22 22 23 23 23 23 23 24 24 26 27 27 27 26 26 26 26 26 27 27 28 28 28 27 27 28 28 28 28 29 29 29 30 30 27 27 28 29 27 26 26 26 25 25 24 23 21 20 20 19 18 17
7 7 7 8 11 13 14 14 15 15 15 16 15 15 16 16 15 14 13 13 12 11 11 12 12 11 12 16 19 22 25 24 24 24 23 23 23 23 23 23 24 24 24 25 25 27 27 28 27 26 26 26 25 26 27 27 27 28 28 27 26 26 26 28 28 29 29 28 30 29 24 25 28 28 27 27 27 26 26 25 24 22 20 20 19 19 18 17
7 7 8 10 12 14 14 15 16 16 16 16 16 16 16 16 16 15 14 14 13 12 12 12 12 11 12 18 22 24 25 25 25 24 24 24 23 24 24 24 24 25 25 26 26 26 27 27 27 26 26 26 26 26 26 26 27 27 27 26 26 23 24 27 28 28 28 28 30 29 23 24 28 28 27 27 27 26 25 24 23 21 20 20 19 19 18 18
8 9 11 12 14 15 15 16 16 16 17 17 17 17 16 16 16 15 15 15 14 13 13 12 11 12 14 18 22 24 25 25 25 25 24 24 24 24 24 25 25 25 26 26 26 26 27 27 26 25 26 26 26 25 25 25 26 27 25 23 24 23 23 27 28 28 28 28 30 28 24 25 28 28 28 28 28 26 25 24 23 21 20 19 19 19 18 18
10 11 13 14 15 16 16 17 17 17 17 17 17 17 16 16 15 15 15 15 14 14 12 12 12 13 16 19 22 24 24 24 25 25 25 24 24 24 25 25 25 25 25 26 26 26 27 27 26 25 25 25 25 24 24 24 24 26 24 22 23 23 23 26 28 29 29 28 29 28 26 26 28 28 28 28 28 27 25 24 23 21 20 20 19 19 18 18
12 13 14 15 16 16 17 17 17 17 17 17 17 16 16 15 15 15 15 15 15 14 13 14 14 14 17 21 22 23 24 24 25 25 25 25 25 25 26 25 25 25 25 26 26 26 26 26 25 25 25 25 24 24 23 21 21 23 24 22 23 24 23 24 27 29 29 29 28 28 27 27 28 29 28 28 28 26 25 23 22 21 20 20 19 19 19 18
13 14 14 15 16 16 16 17 17 17 17 17 17 16 16 14 14 14 15 15 14 14 14 14 15 16 19 21 21 23 25 25 25 26 25 25 25 25 26 26 25 25 25 25 26 25 25 25 25 24 24 24 24 23 21 21 22 22 22 22 23 24 24 24 26 28 29 28 28 27 27 27 28 29 29 28 27 26 25 23 22 21 20 20 20 19 19 19
14 14 15 15 16 16 16 17 17 17 17 17 17 16 15 14 13 14 14 15 15 16 17 17 17 19 22 23 23 24 26 26 26 26 26 26 26 26 26 26 26 26 24 24 24 25 25 25 24 23 23 23 24 24 23 23 24 23 23 23 22 23 24 26 27 29 29 28 28 28 26 27 28 30 30 28 26 26 25 24 22 22 21 21 20 20 20 20
14 15 15 16 16 16 17 17 17 17 17 17 16 16 16 16 16 16 14 15 16 19 21 20 19 21 23 24 25 25 26 26 26 26 26 26 26 26 26 26 26 25 24 24 23 24 25 23 23 22 23 23 25 25 25 25 25 25 24 23 23 23 24 28 28 29 29 28 27 28 28 28 28 29 29 28 27 25 24 24 23 22 22 21 21 20 20 20
14 15 15 16 16 17 17 17 17 17 17 16 15 16 17 19 19 19 18 17 18 19 20 21 21 22 23 24 26 26 26 25 25 26 26 26 26 25 25 25 24 24 24 24 24 25 24 22 22 23 24 25 26 26 26 25 25 25 24 23 23 23 24 28 28 28 29 27 26 27 27 27 27 27 27 28 27 25 24 24 23 23 22 22 21 21 20 20
14 15 15 16 16 17 17 17 17 17 16 15 14 15 18 20 21 22 21 20 20 21 21 21 22 23 24 25 26 27 26 25 24 25 26 26 26 24 24 24 23 23 24 24 24 24 23 22 23 25 25 26 26 26 26 25 25 25 24 23 22 23 25 27 27 27 28 27 26 27 26 25 26 27 27 28 28 25 24 24 24 24 23 23 22 21 21 21
14 15 15 16 16 16 16 17 17 16 16 15 14 15 19 21 22 23 22 20 20 22 22 22 22 23 24 25 26 27 26 25 24 25 26 26 25 24 24 24 23 23 24 24 23 22 22 23 25 25 26 26 26 26 26 25 25 24 24 23 22 23 24 24 25 27 27 26 26 26 25 25 26 27 28 29 28 27 26 25 24 24 24 24 23 22 22 22
14 15 15 16 16 16 16 17 17 17 18 16 15 18 21 22 22 22 21 20 20 21 23 24 24 24 25 26 27 27 25 26 25 25 26 25 25 25 24 24 24 24 24 24 24 23 23 25 26 26 26 26 25 25 25 24 23 24 24 23 23 24 24 23 25 26 26 26 27 26 23 23 26 26 27 28 29 28 28 27 25 25 25 24 23 23 22 22
14 14 15 16 16 16 16 16 17 18 18 16 17 21 23 22 22 22 20 19 19 21 23 24 25 25 26 27 27 27 26 26 26 26 27 26 25 25 25 25 24 23 24 25 24 23 24 26 26 26 26 26 25 25 25 24 23 23 24 24 24 25 25 25 26 25 23 23 25 25 21 21 25 26 26 28 28 28 28 29 28 27 26 24 23 22 22 22
14 14 15 15 16 16 15 15 17 18 18 18 20 22 22 21 22 22 20 18 18 21 23 24 24 25 26 26 27 27 25 25 27 28 27 26 26 26 25 25 25 24 25 25 25 24 25 26 26 26 25 25 25 24 25 25 22 21 24 25 25 26 25 25 25 24 21 21 25 25 22 21 23 24 26 27 28 27 27 28 28 28 26 23 23 22 22 22
14 14 15 15 15 15 15 17 18 18 19 20 22 22 22 22 22 22 20 17 18 22 23 23 24 25 26 26 27 26 23 25 27 27 27 26 27 27 25 24 25 25 26 26 23 24 25 25 25 26 25 25 24 24 25 26 23 22 25 26 26 25 25 25 25 23 22 23 24 25 23 21 21 23 26 27 26 26 26 27 28 28 25 23 23 22 22 22
14 15 14 15 15 15 15 16 15 16 19 21 21 21 22 21 22 21 18 17 20 24 24 23 24 25 25 26 27 26 25 26 26 26 28 27 26 26 24 24 25 25 26 25 22 23 25 25 25 25 25 24 24 24 25 26 24 24 26 26 26 25 25 25 24 23 23 23 21 22 23 21 20 23 26 27 26 25 26 27 27 28 26 23 23 23 22 22
14 14 15 15 15 15 15 14 14 16 20 21 20 21 21 21 21 19 17 18 21 24 24 24 24 25 25 26 26 26 26 26 25 25 27 26 26 26 24 24 25 24 25 25 23 25 26 26 26 26 25 24 25 26 26 25 24 25 26 26 26 26 25 25 24 22 22 22 20 21 23 21 20 22 24 25 24 25 26 27 27 28 27 24 23 23 23 22
14 14 15 15 15 15 15 14 16 19 20 20 20 20 21 20 19 17 16 19 22 24 24 23 23 25 25 24 25 25 25 26 26 26 26 26 26 26 26 26 25 24 24 25 25 25 27 27 27 26 25 25 26 26 26 26 26 26 26 25 25 25 25 24 23 22 21 20 21 21 22 21 21 21 23 24 24 25 26 26 26 27 26 24 23 23 23 23
15 15 15 15 15 15 14 15 18 20 19 19 20 21 20 19 18 17 17 20 22 23 24 23 23 25 25 24 24 25 25 25 26 26 25 25 25 25 25 25 24 24 23 23 24 25 26 26 26 26 26 26 26 25 26 27 26 26 25 24 23 22 22 22 22 22 21 20 21 21 22 21 20 21 23 25 25 25 26 26 25 26 25 24 24 24 23 23
15 16 16 16 16 16 15 17 20 20 19 19 20 20 19 17 17 17 18 21 22 21 23 23 24 25 25 24 24 24 25 25 26 26 25 24 24 24 24 23 23 22 21 22 23 24 25 25 26 26 26 26 25 24 25 26 26 25 24 23 21 20 21 20 20 21 20 20 21 21 22 21 21 22 23 24 26 26 27 26 25 25 25 25 24 23 23 22
16 16 17 17 17 17 18 19 20 19 19 19 19 19 18 16 16 18 19 21 21 22 24 24 24 25 25 24 24 25 25 25 25 26 25 25 24 24 24 24 24 23 21 21 21 21 22 24 25 25 25 26 26 24 23 23 24 24 23 22 20 20 20 19 20 20 20 20 21 22 21 20 21 22 23 23 25 26 26 25 24 25 25 25 24 22 22 22
16 17 17 18 18 19 19 19 19 19 18 18 18 18 17 16 17 19 20 20 22 23 24 24 25 25 25 25 24 25 25 24 25 25 25 25 24 23 24 24 25 24 22 22 21 21 21 22 24 24 24 25 26 25 24 24 24 24 25 23 21 21 20 20 20 20 19 20 21 21 21 20 20 21 23 24 24 24 24 24 25 25 24 23 22 21 21 21
16 17 17 17 18 19 20 20 20 19 18 18 17 17 16 16 18 19 20 21 23 24 25 25 25 24 24 25 25 26 25 23 24 25 25 24 23 23 24 24 25 25 23 21 21 22 20 21 24 25 25 25 25 26 26 26 24 24 25 24 21 21 21 20 20 20 20 20 20 20 21 21 21 21 23 25 25 24 24 25 25 24 22 21 21 21 20 20
16 17 17 17 18 19 20 20 20 19 18 17 16 16 16 17 19 20 21 22 23 24 24 24 24 22 22 24 24 26 26 23 23 24 24 24 24 24 24 24 25 25 24 22 21 22 20 21 24 25 25 26 26 26 27 25 23 23 23 22 23 24 23 21 20 21 20 20 20 20 21 21 21 21 23 25 25 24 25 24 23 22 21 21 20 20 20 20
15 15 16 16 18 19 19 20 20 19 18 17 15 16 17 19 20 21 22 23 23 24 24 22 22 22 21 22 23 25 25 24 24 23 23 23 23 24 25 25 25 26 25 24 23 22 21 21 23 25 25 26 27 27 27 26 25 23 22 23 24 25 24 22 20 20 20 19 20 20 20 20 20 21 22 24 24 24 24 23 21 21 21 20 20 19 19 19
13 13 14 17 19 20 19 20 19 18 17 17 16 16 18 19 21 22 22 23 23 24 23 21 22 23 22 21 22 24 23 22 23 23 22 23 22 22 24 24 25 26 26 25 23 23 23 21 22 25 24 26 27 26 24 25 26 24 23 24 24 22 21 21 20 20 20 19 20 20 20 20 20 20 21 22 22 22 23 22 21 21 20 20 20 19 19 19
12 13 15 19 21 21 20 20 19 19 18 16 16 17 19 20 21 22 22 23 23 23 22 22 22 23 23 22 22 23 23 22 23 23 22 22 22 22 22 23 24 25 25 25 23 23 23 21 21 24 24 24 25 24 22 23 25 25 24 25 24 22 21 21 21 20 20 20 20 20 20 20 20 20 21 21 21 22 22 21 20 20 20 20 19 19 19 19
13 14 16 20 21 21 21 20 19 18 17 16 16 17 19 20 21 23 23 23 24 23 23 22 22 22 22 23 23 23 24 23 23 23 22 22 21 21 22 23 24 24 25 25 24 23 23 21 20 22 23 23 22 23 23 23 23 23 22 22 22 22 21 21 21 21 20 20 19 19 19 19 20 21 21 21 22 21 21 21 20 20 19 19 19 19 19 18
12 14 17 20 21 21 21 19 18 18 17 17 18 18 19 20 21 22 23 24 24 24 23 23 22 22 22 22 22 23 23 23 23 22 22 22 22 21 22 24 24 24 24 24 23 22 21 21 20 21 21 21 21 23 24 24 24 23 22 21 21 21 21 20 20 20 20 20 19 19 18 19 21 21 21 22 22 21 21 20 20 19 19 19 19 19 19 18
12 14 17 20 21 21 20 18 18 18 18 18 18 19 20 21 21 22 23 23 24 24 24 23 22 23 23 22 23 23 23 23 22 22 22 22 22 22 23 24 24 24 23 22 21 21 21 21 20 20 21 21 22 23 24 24 24 24 24 23 22 22 21 20 19 19 20 20 20 19 18 19 21 21 21 22 21 21 20 20 19 19 19 19 19 19 19 19
13 15 18 20 21 21 19 17 17 18 18 19 20 20 21 21 22 22 23 23 23 23 23 23 23 23 23 23 23 23 23 22 22 23 23 22 22 23 24 24 23 23 22 21 20 20 21 21 20 20 20 21 22 23 24 24 24 23 23 24 23 22 22 21 20 20 20 20 20 18 18 19 21 21 22 22 22 21 20 20 19 19 19 19 19 19 19 19
13 14 16 19 20 20 18 17 17 17 18 19 20 20 21 22 22 22 23 23 23 23 22 23 23 22 23 23 23 22 22 22 22 22 23 22 22 23 24 23 22 21 21 21 20 20 20 20 19 19 19 19 20 21 22 22 22 21 22 23 23 22 22 22 21 21 20 20 20 19 18 19 20 21 22 22 21 21 20 20 19 19 18 18 19 19 19 19
13 14 16 18 20 20 18 18 18 17 18 19 19 19 20 21 22 22 22 23 23 23 21 22 22 22 22 22 22 22 22 22 21 22 23 22 22 23 23 23 22 20 20 21 21 21 20 19 19 18 17 17 18 19 19 20 20 21 21 22 22 22 22 21 20 20 19 19 20 19 18 18 20 21 22 21 21 20 19 19 19 18 18 18 19 19 19 19
13 14 15 16 17 18 18 19 19 18 18 18 18 19 19 20 21 22 22 22 22 22 21 21 22 22 21 21 21 21 21 21 21 21 21 21 22 22 23 22 21 20 20 21 21 21 19 19 19 18 17 17 18 18 20 20 20 20 20 21 21 22 21 20 19 19 19 19 19 19 19 19 19 20 21 21 21 20 19 18 18 18 18 19 19 19 19 19
14 14 13 12 14 16 17 17 18 17 18 18 18 18 19 19 20 21 21 21 21 20 20 20 21 21 20 20 20 20 20 21 20 19 19 19 20 22 22 21 20 20 21 21 21 20 19 18 18 18 18 18 19 19 20 20 20 20 20 20 21 21 20 20 19 19 20 19 18 19 19 19 19 20 20 20 21 20 19 18 18 18 19 19 19 19 19 19
12 13 13 12 12 14 14 15 17 17 17 18 18 18 18 18 18 19 20 21 21 20 19 18 19 19 19 18 18 18 19 19 18 17 17 17 18 20 21 20 20 20 21 20 20 20 18 17 18 18 18 19 19 19 20 20 20 20 20 20 20 19 19 19 19 19 20 19 18 19 19 19 19 20 19 19 20 20 20 19 19 18 19 19 19 19 19 18
11 11 12 12 12 12 13 15 17 17 17 17 17 17 17 17 17 18 19 19 19 19 18 16 16 17 17 17 16 16 16 16 16 16 16 17 17 18 19 19 20 20 20 20 19 19 18 17 18 18 17 18 18 18 19 19 19 19 19 19 19 18 18 18 18 19 19 19 19 19 18 18 18 19 19 19 19 19 19 19 19 19 19 19 19 19 19 18
9 10 10 10 11 12 14 15 16 16 15 15 15 16 17 17 17 18 18 18 17 17 17 15 15 16 16 16 15 14 14 15 15 15 16 16 16 17 18 18 19 20 20 19 18 18 18 17 17 18 17 16 17 18 18 18 18 18 18 18 18 18 18 18 18 18 18 18 18 18 17 18 18 19 19 18 18 17 17 17 18 18 18 19 19 19 19 19
9 10 10 9 10 12 13 14 15 15 14 14 15 15 16 16 16 16 17 16 16 16 16 15 14 15 15 14 13 13 14 15 15 16 16 16 16 17 17 18 19 19 19 19 18 17 17 17 17 17 15 15 17 17 17 17 16 16 16 17 18 18 17 17 17 17 17 16 16 16 16 17 17 18 18 17 17 17 17 17 17 16 16 16 16 17 18 18
8 9 10 10 10 12 13 14 14 14 13 14 15 16 16 16 16 15 14 15 16 16 16 15 14 14 13 13 13 13 14 15 15 16 17 17 17 17 17 18 19 18 18 18 18 17 17 17 16 16 15 15 16 16 16 16 15 15 16 17 17 17 17 17 16 16 16 16 15 15 15 15 17 17 17 17 17 17 16 16 16 15 15 15 15 15 16 17
Height
789 788 788 787 786 785 784 783 783 782 781 781 780 779 778 777 776 776 775 774 774 773 773 772 771 771 770 769 768 767 765 764 762 763 760 751 749 752 753 754 754 754 756 757 757 758 758 758 757 756 757 757 757 756 754 751 749 754 761 770 775 772 766 755 749 743 739 739 733 727 723 727 730 725 719 718 723 727 733 735 733 733 733 734 737 741 748 754
788 787 786 786 785 784 783 782 782 781 780 780 779 778 777 776 775 775 774 773 773 772 772 771 771 770 769 768 767 766 765 763 762 760 752 746 749 751 751 753 753 754 755 756 756 756 757 757 755 755 757 758 756 754 755 751 749 756 761 767 769 763 755 745 741 736 735 737 732 726 725 726 728 727 723 728 733 731 741 745 739 742 742 740 740 743 748 752
787 786 785 784 784 783 782 781 781 780 779 779 778 777 776 775 774 774 773 773 772 772 771 770 770 769 768 767 766 766 764 762 761 754 745 744 748 748 750 752 752 753 754 754 754 755 755 753 752 753 756 758 756 753 755 751 750 753 757 766 763 753 748 739 736 735 732 731 731 730 727 726 726 724 725 733 737 734 743 749 747 751 750 747 744 742 747 751
786 785 784 783 782 781 781 780 779 779 778 777 776 776 775 774 773 773 772 772 771 770 770 769 769 768 767 766 766 765 764 763 757 746 742 743 744 746 748 750 751 752 753 753 754 754 754 752 751 751 754 758 755 752 755 751 750 750 753 761 755 747 747 739 735 735 730 728 731 732 729 730 726 723 727 732 739 739 740 742 744 749 749 749 747 743 745 749
785 784 783 782 781 780 779 779 778 777 777 776 775 774 773 773 772 771 771 770 770 769 769 768 768 767 766 765 765 765 765 763 751 741 742 743 743 745 746 748 750 751 751 753 753 754 754 752 751 750 753 757 755 754 754 747 745 749 749 750 746 745 747 738 732 732 729 728 730 732 733 732 726 727 729 731 740 742 736 734 736 740 743 745 746 746 746 749
784 782 782 781 779 779 778 778 777 776 775 774 774 773 772 772 771 771 770 769 769 768 768 768 767 766 765 765 764 764 765 759 746 741 742 741 743 744 745 747 748 749 751 752 753 753 753 751 751 753 754 755 755 754 752 743 741 750 749 744 742 741 742 735 730 730 727 728 731 732 730 728 730 733 728 728 735 735 729 730 735 739 742 743 745 748 750 752
782 781 780 779 778 778 777 776 775 774 774 773 772 772 771 771 770 770 769 769 768 767 767 766 766 765 764 764 764 764 765 755 742 742 742 741 744 743 745 746 747 749 750 751 752 753 752 751 752 753 754 755 754 751 748 742 739 747 748 742 739 736 736 733 729 729 727 729 729 727 727 729 735 735 728 730 734 732 729 729 735 741 743 746 748 751 754 756
781 780 779 778 777 777 776 775 774 773 773 772 772 771 770 769 769 768 768 768 767 766 766 765 765 765 764 763 763 763 762 750 740 741 742 742 743 743 745 745 746 748 749 750 751 751 752 752 750 750 755 754 750 748 744 743 742 744 745 739 736 734 732 730 728 728 727 727 726 727 732 733 732 731 730 735 736 733 732 732 736 741 745 750 753 754 756 759
780 779 777 777 776 775 775 774 773 772 771 771 770 769 769 768 768 767 767 767 766 766 765 764 765 764 764 763 763 762 753 742 739 741 741 742 742 742 744 744 746 747 748 750 748 749 751 750 747 745 751 749 746 745 742 747 747 739 737 735 734 734 731 729 729 728 727 726 726 731 736 732 727 729 732 735 736 734 734 736 738 743 748 752 755 757 759 761
779 777 776 776 775 774 773 773 772 771 770 770 769 768 768 767 767 766 766 766 766 765 764 764 764 763 765 763 765 762 746 737 740 740 740 742 742 743 743 744 745 746 748 748 746 747 747 746 742 739 743 744 743 743 740 744 742 732 732 732 732 733 730 730 730 727 727 726 726 733 737 732 726 732 738 735 733 733 735 739 741 745 750 753 756 759 761 764
777 776 775 774 774 773 772 772 771 770 769 769 768 767 767 766 766 765 765 765 764 764 764 764 763 764 764 763 766 760 742 737 740 739 741 742 742 743 743 744 745 746 746 745 745 743 742 740 736 738 743 744 742 742 739 736 733 730 731 734 733 733 731 730 730 728 728 728 725 728 734 731 728 733 738 735 732 732 736 740 742 747 752 755 757 760 763 765
776 774 773 773 772 771 771 771 770 769 768 768 767 766 766 766 765 764 764 764 764 764 764 764 764 764 763 764 763 751 738 738 739 738 741 741 743 743 742 744 744 744 744 743 742 739 739 736 735 742 744 743 744 745 740 732 732 732 732 739 738 735 735 732 730 729 729 730 723 726 739 739 733 733 732 730 730 730 735 740 744 749 753 756 758 761 764 766
774 773 772 772 771 770 770 769 769 769 768 767 766 765 765 765 764 764 763 763 763 763 763 763 763 763 765 760 749 741 738 739 739 738 741 741 743 743 743 743 742 742 742 741 740 738 738 735 736 741 741 743 747 743 737 731 733 734 734 740 743 745 743 732 730 729 729 728 719 728 751 748 734 731 729 726 726 728 736 741 746 751 754 757 759 762 765 767
773 772 771 770 770 769 769 769 768 767 767 766 765 765 764 764 764 763 762 763 762 763 763 763 763 764 765 755 740 737 739 738 739 739 740 741 742 742 742 742 742 741 740 740 739 737 737 734 735 740 740 743 743 739 739 738 736 737 740 742 746 756 748 730 728 729 729 726 716 730 754 749 734 730 727 722 722 728 737 742 746 752 755 758 759 761 764 766
772 771 770 769 769 768 768 768 767 767 766 765 765 764 763 763 763 762 762 762 762 763 762 763 763 763 764 753 738 736 738 737 738 738 739 741 741 741 741 741 741 741 740 740 739 738 736 735 738 744 744 740 741 746 749 747 741 740 750 753 750 755 747 730 724 723 727 724 716 731 750 745 733 728 724 719 720 727 737 742 745 751 755 757 759 760 763 765
771 770 769 768 768 768 767 767 766 766 765 764 764 763 763 762 762 761 762 761 762 762 762 763 762 763 764 751 739 736 736 736 736 737 738 739 739 739 739 740 740 740 740 739 738 738 736 737 741 744 744 744 746 752 754 756 752 744 750 758 752 750 747 734 722 716 720 723 721 730 742 741 731 724 721 718 719 726 735 740 744 750 753 756 758 760 762 765
771 770 769 768 767 767 767 766 766 765 764 764 763 762 762 761 760 761 761 761 762 761 762 762 761 764 758 744 739 738 734 734 734 735 737 737 738 737 738 739 739 739 739 738 739 738 737 740 743 744 745 747 748 753 763 770 765 753 750 752 748 744 742 737 727 716 714 722 727 729 733 736 730 723 721 718 720 727 735 740 745 750 754 756 757 759 761 763
771 769 768 768 767 766 766 765 765 764 764 763 762 762 761 760 760 760 760 761 761 762 763 761 763 767 755 740 738 735 730 732 733 733 735 736 736 736 737 737 737 738 740 741 740 740 742 741 744 749 750 750 750 755 768 770 761 757 754 751 748 742 737 735 729 718 715 722 729 732 735 734 729 724 721 720 721 728 735 740 745 749 752 755 756 759 761 762
771 769 768 767 766 766 765 765 764 764 763 762 762 761 760 759 759 759 760 761 762 762 760 757 758 758 746 733 731 729 728 729 731 733 734 734 735 736 735 735 736 739 744 748 745 742 744 746 750 757 758 755 752 751 757 754 748 750 750 748 749 744 733 727 723 716 714 723 728 732 736 734 730 723 719 720 720 726 733 738 745 750 752 753 755 758 759 761
770 769 768 767 766 765 765 764 764 763 762 762 761 760 760 759 759 760 760 760 757 752 748 747 747 744 736 729 726 727 728 729 730 732 732 732 734 735 735 736 738 741 746 750 749 742 742 753 759 758 756 752 747 744 743 743 742 743 745 746 746 744 734 722 721 716 713 725 730 730 733 731 730 725 720 720 721 726 733 739 745 750 752 753 754 756 758 760
771 769 768 767 766 765 764 763 763 762 761 761 761 762 761 758 758 758 756 754 748 743 742 740 739 739 733 728 726 725 728 731 731 730 731 731 732 737 739 738 744 748 746 745 746 741 744 757 757 749 747 743 740 739 739 740 742 742 745 748 747 747 738 724 723 720 713 726 734 731 734 734 732 730 726 721 723 730 733 737 743 746 750 751 751 754 756 758
771 769 767 767 765 765 764 763 762 761 761 761 761 761 758 753 753 750 750 751 744 738 740 735 735 736 729 725 725 723 728 734 735 731 729 730 733 740 741 740 748 750 743 742 747 749 753 756 748 739 738 737 737 736 737 740 742 744 745 749 751 746 739 730 726 723 720 729 736 734 738 740 733 730 727 723 724 730 731 732 736 740 746 749 749 752 754 756
772 769 767 766 765 765 763 762 762 760 760 759 759 759 754 749 749 747 748 753 746 735 734 733 733 733 728 724 721 722 729 733 736 732 727 730 735 738 741 743 746 746 744 745 749 756 759 750 737 733 733 735 737 736 738 741 743 745 747 752 753 744 745 746 737 730 727 731 736 736 739 740 733 729 727 723 721 724 727 729 732 734 739 742 745 747 750 754
771 769 767 765 765 764 763 762 761 759 759 758 757 754 750 749 749 748 749 753 749 735 727 726 726 727 726 721 717 722 728 728 730 729 724 729 734 735 739 741 743 746 744 741 743 749 749 738 728 730 732 733 738 737 739 745 748 747 746 749 750 742 744 748 740 734 733 734 733 737 748 746 735 735 732 724 721 723 723 726 730 732 733 737 741 745 747 750
771 769 767 765 765 764 762 762 759 759 759 757 755 750 748 750 749 748 750 757 755 736 723 722 720 720 718 717 718 719 724 724 723 722 719 723 730 733 736 735 739 746 741 736 740 744 740 730 726 731 733 733 738 740 740 745 751 751 745 743 743 739 740 742 740 741 748 752 739 740 766 764 739 737 737 726 724 727 723 723 727 728 730 736 742 746 749 751
771 770 767 766 765 763 763 761 758 759 759 755 752 749 750 750 748 748 753 766 763 737 724 724 720 718 715 716 717 716 727 728 715 714 716 718 721 726 734 734 733 738 734 731 736 738 733 727 725 730 734 735 739 742 739 740 752 756 745 736 737 737 739 740 740 746 758 760 742 739 766 773 751 741 737 730 729 729 726 725 725 727 731 737 742 746 749 752
771 769 767 766 764 763 763 759 758 759 757 754 751 751 751 748 749 748 755 777 768 732 723 726 720 717 715 714 712 721 737 728 711 711 713 717 719 720 734 737 734 733 726 731 742 737 730 730 730 730 733 738 743 745 738 736 750 754 739 732 736 737 740 741 740 747 752 750 745 741 752 767 764 748 734 731 733 733 730 728 726 727 731 737 741 744 746 748
770 768 767 765 763 763 762 759 759 758 756 753 750 751 750 748 750 750 766 786 762 722 720 723 717 715 714 712 712 720 726 718 719 719 708 714 719 721 733 735 734 734 725 734 749 738 727 732 734 732 736 741 742 740 734 734 745 744 732 731 734 736 740 740 744 749 745 750 761 752 747 766 771 749 734 733 736 738 735 731 729 727 731 736 738 740 742 744
769 767 766 764 763 762 761 761 760 756 754 751 752 752 749 749 751 755 775 781 747 719 719 720 717 717 716 716 717 718 717 715 724 721 709 715 718 719 731 730 729 734 728 730 739 732 725 726 726 728 736 739 736 732 728 733 739 734 728 732 733 735 738 740 748 751 749 761 772 758 749 768 772 751 741 741 740 741 737 732 730 727 731 736 736 739 743 746
768 766 765 763 762 761 761 760 756 754 753 751 753 751 749 752 756 772 789 772 739 724 720 720 722 719 719 724 724 721 720 719 718 715 715 719 717 717 723 722 725 733 731 729 731 727 721 717 718 723 730 730 729 728 727 729 730 727 729 735 738 740 740 744 748 749 761 774 770 758 751 764 773 759 747 745 741 738 735 734 734 731 734 738 738 741 744 745
765 765 764 762 761 762 762 758 754 754 754 753 753 750 752 757 762 783 786 753 734 730 722 723 724 717 720 727 727 723 722 722 716 717 723 722 723 725 726 729 731 736 740 737 734 727 721 722 722 721 721 723 726 729 727 724 724 727 733 741 751 754 751 755 754 755 775 783 768 759 754 763 776 765 747 741 735 733 734 735 736 736 739 741 740 742 744 745
763 762 762 760 759 759 759 755 752 753 754 753 753 751 758 768 773 780 768 743 742 740 726 725 722 717 720 723 725 723 723 724 718 717 724 727 730 730 732 739 739 746 754 747 741 736 729 727 724 721 719 720 728 735 733 728 727 732 738 747 764 772 771 776 775 773 781 780 766 759 759 766 771 758 747 741 734 731 731 732 736 736 738 742 743 745 747 748
760 759 758 757 756 755 753 753 752 754 754 753 754 753 763 780 780 767 755 748 747 735 724 724 718 714 718 722 725 721 720 723 718 718 721 723 731 731 730 731 731 743 754 748 748 748 743 733 724 726 726 720 726 738 743 740 735 738 743 751 768 779 787 793 789 785 786 778 763 755 761 772 770 756 747 742 735 731 729 732 735 735 736 740 743 747 749 749
758 756 755 753 752 751 750 751 752 753 754 753 756 761 771 783 773 755 751 747 736 725 722 723 718 715 715 719 722 718 720 724 716 718 722 721 730 735 732 729 727 733 742 747 750 751 757 753 735 731 731 724 724 730 736 737 736 737 734 741 757 765 778 790 788 789 791 781 767 760 767 777 775 760 744 737 736 734 733 734 734 735 738 741 744 747 750 751
755 754 753 750 749 748 747 749 750 752 755 755 760 768 776 778 764 753 751 740 729 723 718 715 718 724 721 716 715 711 718 729 722 718 723 726 731 733 732 730 726 727 738 751 751 746 757 755 732 724 724 722 724 723 720 728 739 738 729 738 752 750 757 772 774 775 779 780 775 769 767 766 763 755 740 735 737 736 737 737 737 741 743 745 748 751 753 755
753 751 750 748 746 744 745 747 748 751 753 757 767 773 771 765 754 748 741 729 725 724 720 719 721 730 731 723 718 711 711 724 726 724 726 725 726 726 726 725 721 722 732 744 747 747 756 751 727 721 722 717 720 720 717 728 741 740 737 744 743 734 742 762 770 765 769 783 780 769 765 761 758 755 742 736 738 738 739 742 745 749 748 750 754 754 756 757
751 749 748 745 742 742 743 744 746 749 752 759 770 770 761 752 743 738 732 725 723 720 724 733 731 731 737 731 725 718 715 720 722 726 730 728 727 725 720 719 717 717 722 730 739 740 748 750 731 723 728 718 712 717 718 719 728 740 747 742 734 732 737 752 770 773 778 788 781 767 768 769 769 766 751 741 743 743 741 744 750 752 752 755 757 758 759 759
751 749 746 740 737 738 741 743 745 748 752 760 768 763 753 747 739 733 730 726 725 721 727 737 733 729 735 736 731 723 722 728 726 727 730 730 732 729 723 722 717 715 716 723 734 735 739 752 740 723 728 721 710 721 731 723 720 731 738 732 737 753 756 756 769 779 784 789 782 769 766 770 774 771 760 754 753 750 747 749 753 754 755 758 759 760 761 762
752 751 745 733 731 735 738 741 743 746 753 762 767 760 749 743 736 730 728 726 725 726 729 732 728 727 728 729 731 726 724 729 728 728 733 735 735 730 727 727 722 718 717 720 732 733 734 753 752 730 724 726 721 729 742 738 727 727 731 731 737 751 760 759 761 768 776 785 785 777 773 774 773 767 762 759 756 754 754 755 756 756 757 759 760 762 764 765
752 753 745 729 728 733 735 739 743 748 756 759 760 755 745 739 733 726 723 722 721 722 726 727 727 730 728 724 725 725 722 723 724 728 734 736 736 733 727 725 723 722 720 721 729 733 735 750 758 742 730 736 739 736 737 739 736 736 743 747 747 747 753 758 758 759 768 780 787 787 788 783 768 759 759 756 752 753 755 758 761 760 759 761 763 765 766 768
754 754 744 729 727 730 733 741 746 750 755 755 752 750 743 737 732 725 720 719 717 716 719 724 727 729 729 727 726 723 721 721 724 729 732 730 733 736 728 721 721 722 724 728 733 738 744 750 757 755 748 749 746 734 728 731 733 737 743 749 751 751 756 768 773 766 764 773 780 786 792 783 762 754 756 753 751 753 754 759 765 763 762 764 765 767 768 769
756 754 742 732 732 731 735 746 748 747 751 750 747 743 738 733 730 726 721 718 717 717 717 721 724 725 725 726 725 723 722 724 726 729 730 729 731 733 726 719 719 721 726 736 740 741 743 748 756 760 755 750 741 730 727 728 727 730 735 739 744 748 755 771 781 774 767 768 772 781 790 778 758 753 754 752 753 755 755 759 764 765 764 764 766 768 770 771
757 752 740 734 734 732 740 750 749 746 747 744 739 736 732 729 728 725 720 718 719 720 720 721 722 723 722 721 722 723 723 726 727 725 726 728 729 727 724 721 722 724 730 739 744 742 743 749 759 761 754 747 739 731 728 726 728 735 736 734 739 745 749 756 763 763 766 768 771 782 790 776 759 753 752 752 753 756 759 759 763 767 766 766 768 769 771 772
757 752 742 737 735 734 743 752 751 750 746 740 736 734 730 726 725 723 721 720 720 721 724 723 722 723 722 719 721 724 725 730 731 725 724 728 728 724 722 724 726 731 737 741 743 745 749 754 760 767 769 764 756 750 746 741 741 746 743 738 739 742 745 750 754 758 767 768 766 778 789 779 763 755 753 754 755 758 763 763 764 768 769 770 770 770 772 773
756 752 743 737 735 736 741 744 745 748 745 741 740 737 733 728 723 720 720 719 718 720 726 726 722 723 722 721 724 725 724 730 733 728 725 727 726 723 722 724 728 734 738 738 737 741 751 757 760 771 781 780 775 770 764 758 754 751 748 744 743 743 747 754 760 768 775 772 766 775 784 778 766 759 756 757 758 763 768 768 768 770 772 772 772 772 773 773
758 755 749 745 740 738 740 738 739 744 744 743 742 737 735 733 724 718 718 721 720 721 727 727 723 725 727 728 732 734 730 729 731 731 732 732 729 725 723 725 730 735 737 737 737 742 752 758 759 766 773 774 773 767 759 757 759 758 755 751 749 748 750 756 765 772 773 772 772 772 774 775 771 765 761 759 760 766 770 770 771 772 773 773 773 773 774 774
760 760 761 762 755 747 746 743 742 745 742 741 743 739 736 736 730 724 722 723 724 727 732 731 727 730 736 735 737 740 736 732 734 739 743 743 737 729 726 729 734 736 736 738 740 746 757 763 760 761 764 763 762 759 754 755 758 758 757 756 754 753 754 759 767 767 764 771 778 771 767 775 774 766 765 765 762 765 769 771 772 772 771 772 772 773 774 775
766 765 765 768 765 759 757 751 746 746 743 740 741 741 740 741 739 737 732 727 727 732 739 741 737 737 742 743 744 746 743 742 746 750 750 750 747 740 735 735 737 737 737 740 741 745 758 765 761 760 763 760 758 758 757 757 757 755 756 757 757 758 761 764 766 763 762 770 776 768 765 772 772 766 767 767 763 764 766 768 769 769 769 769 770 771 773 774
773 772 767 766 767 765 760 753 746 746 747 744 743 744 745 745 745 743 739 737 738 737 742 751 751 748 747 748 751 758 759 758 760 759 755 754 753 750 747 745 742 739 739 744 745 746 756 764 761 761 766 765 762 762 760 760 760 758 757 757 759 763 766 767 767 764 762 766 768 767 769 771 769 766 765 764 764 765 766 766 768 770 769 767 767 769 771 772
782 782 777 772 770 763 758 754 749 749 751 750 751 751 747 747 748 744 741 745 750 746 745 754 758 754 753 755 759 765 766 765 765 762 758 758 756 753 753 751 747 744 743 746 749 750 757 763 761 762 769 771 766 764 763 763 765 765 763 761 761 763 764 766 766 764 765 768 768 768 773 773 767 763 763 764 766 768 770 770 771 773 773 769 769 770 769 769
786 785 783 781 776 766 760 757 752 754 758 758 757 755 752 752 752 749 747 750 754 753 752 757 760 758 760 764 767 769 767 764 764 760 756 758 758 755 754 751 747 749 749 748 752 755 759 764 763 765 776 778 769 767 769 768 770 772 770 766 764 765 766 767 769 769 772 775 774 775 780 779 770 765 765 767 768 771 773 773 773 777 777 775 776 776 772 769
786 783 781 782 779 768 762 760 757 760 765 763 760 757 757 757 755 756 758 756 754 755 756 758 762 763 767 771 771 770 767 764 762 759 755 754 753 752 752 749 747 750 752 751 754 757 759 764 766 770 780 780 771 770 772 773 780 780 771 765 764 765 767 769 771 772 773 776 781 785 787 782 774 769 769 770 771 773 775 776 777 779 779 779 779 778 774 772
Wind_Speed
11 11 11 11 11 11 11 11 11 11 11 11 11 11 11 11 11 11 11 11 11 11 11 11 11 12 12 12 13 13 15 15 14 11 11 15 14 8 8 9 4 3 7 10 11 8 8 9 13 16 13 9 5 3 6 6 4 4 2 4 5 4 6 6 8 8 4 1 3 4 4 5 5 5 5 5 4 2 8 10 6 6 8 11 19 30 31 27
12 12 11 11 11 11 11 11 11 11 10 11 11 11 11 11 11 11 11 11 11 11 11 11 11 11 12 12 11 11 14 15 14 15 19 17 14 12 14 15 10 6 8 11 13 11 8 8 11 13 7 4 4 4 5 4 4 4 2 4 5 5 7 9 12 10 6 3 3 5 5 4 4 5 3 4 4 3 8 8 8 12 12 14 22 28 28 27
12 12 12 11 11 11 11 11 11 11 11 10 11 11 11 11 11 11 11 11 11 11 11 11 10 11 11 11 10 10 13 13 9 12 15 12 16 17 17 19 14 11 11 14 14 14 14 12 13 10 6 4 4 5 6 4 4 5 4 4 5 5 8 11 13 11 6 4 4 6 6 5 5 4 1 2 6 5 5 8 8 12 13 13 17 22 25 25
13 12 12 12 12 11 11 11 11 11 11 11 11 10 11 11 10 11 11 11 11 10 11 10 10 11 11 10 9 10 10 8 3 7 5 5 14 16 17 18 15 13 13 15 15 15 17 17 13 8 6 5 5 6 6 5 4 4 5 6 6 7 9 12 12 8 5 5 6 5 6 6 6 4 1 2 3 5 1 11 13 14 16 15 15 17 20 20
13 12 12 12 12 11 11 11 11 11 10 10 10 10 11 11 10 11 11 11 11 10 11 10 10 10 10 9 7 8 6 2 1 4 3 6 11 13 16 17 15 14 14 13 12 13 18 17 12 8 5 4 4 5 6 8 6 4 6 8 9 9 9 12 11 5 4 5 6 5 6 3 4 4 1 1 3 2 1 12 17 16 16 16 15 14 15 16
13 13 12 12 12 12 11 11 11 11 10 10 10 10 10 10 11 11 11 11 10 10 10 9 10 9 9 8 6 5 2 0 4 3 5 7 9 11 14 14 13 13 11 10 10 11 13 12 9 6 3 4 5 6 7 8 7 5 6 7 9 10 9 10 10 6 2 2 3 2 4 3 4 4 2 3 1 5 7 13 15 14 12 13 14 12 13 13
13 13 12 12 12 12 12 11 11 11 11 11 10 11 10 10 10 10 10 10 10 10 9 9 9 8 9 7 2 2 1 5 9 4 6 7 8 10 11 12 12 11 10 9 10 9 9 10 7 4 4 4 6 7 9 10 8 7 6 7 9 9 10 9 9 8 3 2 3 3 5 6 6 5 3 3 8 12 13 16 16 11 10 10 10 10 11 10
13 13 13 13 12 12 12 12 12 11 11 11 11 11 11 11 10 10 10 9 9 9 8 8 7 6 8 7 1 1 2 8 9 5 7 7 7 9 11 12 12 11 11 11 11 10 9 10 7 4 5 5 6 8 9 9 8 9 9 8 8 8 10 9 8 10 6 2 2 4 4 7 9 4 4 4 14 15 14 17 16 13 11 9 8 9 10 9
14 13 13 13 12 12 12 12 12 12 11 11 11 11 10 10 10 10 10 9 9 8 8 6 5 4 5 5 2 2 3 6 6 5 6 6 7 10 13 12 13 12 11 14 15 13 9 7 7 7 7 7 8 8 7 6 5 8 8 5 5 6 9 10 10 9 7 3 2 4 5 8 8 4 4 4 15 14 14 16 15 14 12 10 8 9 9 9
14 13 13 13 12 12 11 12 12 12 12 12 12 11 11 11 10 10 9 9 8 7 7 5 4 3 3 4 2 1 3 3 4 3 4 6 7 13 14 11 13 13 10 14 15 15 11 9 8 6 7 7 6 7 7 7 5 5 4 3 5 6 8 10 9 6 5 5 6 5 6 9 8 5 4 6 16 14 15 15 15 13 11 10 8 8 8 8
14 13 13 12 12 12 11 12 12 13 13 13 13 12 12 12 11 10 9 8 7 7 6 4 3 3 4 4 2 2 5 2 5 4 6 6 8 14 14 12 14 16 14 13 16 19 16 13 9 2 3 3 4 7 7 7 7 8 5 3 6 6 7 8 8 6 5 5 7 7 8 10 7 6 4 10 14 14 15 14 14 13 10 9 9 8 7 7
14 13 12 12 12 12 11 12 12 13 13 14 14 13 13 13 12 10 9 8 7 5 4 3 2 3 4 3 5 8 7 4 6 10 9 7 8 11 12 12 14 17 17 13 15 18 16 14 9 4 3 4 5 5 5 9 7 8 7 4 6 6 8 9 7 7 6 4 6 6 6 8 7 5 10 14 12 14 15 12 12 12 10 9 9 7 6 7
15 14 12 11 12 11 11 11 12 13 14 14 14 14 14 14 13 11 9 8 5 4 3 3 1 2 4 2 8 10 7 6 7 11 9 8 8 9 10 12 14 18 21 16 13 14 14 13 5 4 6 5 5 4 7 12 6 6 6 3 4 5 8 9 8 10 9 7 7 5 3 7 8 5 15 16 13 16 13 11 11 10 10 8 7 7 5 8
15 14 12 11 10 10 11 11 12 13 14 15 14 15 15 14 13 11 9 7 5 2 1 2 1 1 1 4 12 12 7 6 7 9 9 10 11 12 12 15 15 16 17 16 16 16 14 9 3 3 5 5 5 6 8 9 5 4 4 3 3 3 8 8 8 12 11 9 8 8 3 7 8 6 15 15 16 18 12 11 12 9 9 7 7 7 5 6
15 13 12 10 9 10 10 11 12 13 14 15 15 15 15 13 12 10 8 7 5 2 1 2 2 2 2 7 14 12 9 8 7 9 11 13 13 12 13 15 13 11 11 13 15 16 15 8 4 2 3 6 6 6 6 4 4 3 2 5 3 4 8 8 10 14 13 8 9 10 4 6 8 7 12 12 14 17 13 12 12 10 10 7 7 7 6 6
15 13 12 10 9 9 9 10 11 12 14 15 15 15 14 12 11 8 7 6 3 2 1 2 5 5 2 4 7 6 9 9 10 13 13 16 15 13 13 12 9 10 12 14 12 13 11 3 2 3 4 6 5 4 4 4 5 2 4 6 4 6 8 8 9 13 13 6 9 11 4 5 7 5 11 13 12 16 15 14 13 12 11 8 7 6 7 7
16 13 11 10 9 8 9 10 11 12 13 15 15 14 12 11 9 7 6 3 1 1 3 4 3 4 3 5 6 4 8 10 12 15 15 16 18 16 13 9 8 11 12 12 11 9 5 2 2 3 3 4 4 3 4 5 5 3 4 6 5 6 6 4 4 8 12 7 8 9 6 5 7 3 8 12 13 14 14 14 14 12 10 8 7 5 7 8
17 14 12 10 9 9 9 10 10 11 13 14 14 13 12 11 8 6 4 1 1 1 5 8 4 1 4 8 7 6 11 14 14 14 16 16 18 18 13 9 6 8 7 6 8 6 2 2 2 2 3 3 4 4 4 5 3 3 5 4 5 7 5 6 5 6 11 8 8 7 6 7 7 4 4 9 16 15 12 13 12 11 12 10 9 7 6 7
20 15 12 10 9 9 9 10 10 11 12 13 13 12 11 9 6 4 1 2 2 0 2 4 4 2 3 7 11 13 11 14 13 12 15 15 15 15 11 9 6 6 5 3 4 5 3 1 2 3 4 5 5 5 5 4 2 4 6 4 5 7 4 4 6 6 7 7 6 7 6 7 5 6 3 7 15 15 12 12 10 10 10 10 9 7 7 8
23 16 12 10 9 10 10 10 10 11 12 12 10 9 7 5 2 1 2 4 5 7 7 5 8 6 8 7 7 12 9 12 10 9 14 13 10 8 6 6 5 4 5 3 4 5 4 3 4 6 7 7 7 4 2 3 3 4 6 5 7 7 5 3 6 4 5 6 3 2 4 6 5 6 5 5 11 14 14 12 10 10 9 10 10 10 9 8
26 19 14 11 10 10 10 10 11 11 12 10 7 3 2 4 3 1 2 6 9 13 13 13 11 11 14 13 5 10 8 6 5 8 14 13 8 5 3 4 5 4 5 6 5 3 4 5 6 9 9 8 6 4 2 4 5 5 5 5 7 7 6 5 6 4 7 5 2 5 4 6 5 5 5 3 7 11 15 14 13 13 10 10 12 13 12 8
27 23 16 12 10 10 10 11 11 12 12 8 4 2 4 8 9 7 4 4 8 12 14 16 16 13 16 23 17 11 6 4 6 6 12 12 7 5 4 6 5 5 5 6 5 3 4 6 9 11 9 7 4 3 5 4 5 4 4 5 6 5 4 6 5 6 7 3 3 6 6 6 6 7 5 2 7 10 14 15 15 15 12 11 12 13 12 10
27 25 19 13 11 11 10 11 12 13 14 9 6 6 7 14 14 12 7 3 7 10 12 13 15 13 14 19 16 13 6 5 7 7 12 13 6 6 5 6 7 7 6 6 5 4 4 7 11 11 7 6 2 4 5 5 4 2 2 2 6 6 3 4 5 4 5 3 1 5 7 6 6 8 7 2 6 8 11 14 14 14 14 13 13 14 13 13
26 26 22 14 11 11 11 13 13 14 15 11 12 13 12 16 15 11 6 3 5 8 11 12 13 12 13 14 9 10 5 5 7 8 15 14 6 6 5 6 6 6 6 9 10 8 7 7 6 4 6 4 2 4 3 3 3 4 3 3 5 7 4 1 2 4 6 5 2 4 6 6 6 6 6 5 3 6 8 11 12 11 11 12 12 13 12 12
24 25 23 17 12 10 12 13 11 11 12 9 15 19 15 13 10 10 6 2 3 5 8 10 9 10 15 15 9 8 6 6 7 8 16 16 9 6 5 6 5 6 9 11 10 9 9 6 4 6 4 2 3 2 1 2 1 4 4 5 6 8 8 4 1 3 6 5 3 4 3 5 6 5 7 6 1 5 6 8 9 8 8 11 13 11 10 10
24 23 23 20 13 10 10 7 6 11 11 10 14 17 11 8 10 10 4 1 3 4 5 5 4 9 14 10 7 6 5 6 9 11 14 18 14 7 5 4 3 7 9 7 4 3 5 4 5 6 3 3 3 1 3 2 1 3 4 4 3 6 8 5 1 3 3 2 4 5 5 3 6 6 7 5 3 5 6 6 7 5 8 11 12 12 11 9
23 22 22 21 15 9 6 6 10 13 8 11 16 17 12 12 13 8 3 1 4 3 4 2 1 6 8 8 8 5 3 5 8 11 13 17 13 6 5 5 3 5 5 1 1 2 2 3 3 5 4 2 1 2 5 5 3 3 6 4 5 5 6 5 4 2 3 2 3 2 6 2 4 6 7 6 5 5 5 6 7 7 10 13 12 12 14 13
23 22 21 20 16 10 8 11 13 10 7 12 18 16 13 15 12 5 4 1 3 1 3 1 1 3 3 7 10 5 6 7 4 6 13 19 12 4 5 8 5 7 7 1 3 4 3 6 4 4 4 1 3 5 7 6 4 4 5 4 1 4 6 7 5 3 2 2 4 5 3 3 4 6 6 7 5 2 3 4 5 6 7 13 16 14 14 12
23 22 20 19 17 12 10 12 10 8 12 15 16 15 14 13 8 3 3 0 2 1 1 1 2 3 2 4 8 7 9 7 2 3 9 14 11 4 4 6 5 8 9 4 5 4 3 5 7 5 4 3 4 7 7 5 6 5 2 1 3 3 4 5 4 3 2 3 3 6 2 2 4 6 4 4 3 1 3 2 3 4 4 8 15 11 9 9
23 21 21 20 16 10 9 11 13 10 15 14 14 16 14 8 3 2 1 1 2 2 2 1 1 3 5 5 6 8 9 6 3 6 5 5 6 4 2 3 3 5 6 4 3 5 4 3 4 3 3 3 3 5 5 5 4 3 3 3 4 3 3 3 4 1 2 1 5 5 2 2 4 4 2 1 2 3 4 2 3 5 7 7 12 10 8 9
23 20 20 21 16 8 5 7 10 10 15 13 13 13 8 3 2 2 1 1 3 3 1 2 3 5 7 6 5 7 9 8 4 7 5 2 3 4 0 3 2 2 4 5 5 6 4 1 2 1 4 4 2 4 4 6 3 3 4 3 4 4 4 2 3 2 1 4 4 2 5 3 3 3 3 4 2 4 6 4 7 9 9 8 10 9 8 7
24 20 19 19 17 13 11 11 9 10 13 14 12 6 3 2 1 3 2 2 3 3 3 2 5 7 9 9 7 7 7 6 6 5 5 5 4 4 4 3 3 1 3 4 4 5 4 1 2 2 3 5 2 2 5 6 2 3 3 2 2 3 3 3 3 2 1 4 4 3 5 2 4 4 3 5 2 4 5 6 8 11 9 8 9 9 8 9
24 22 19 18 18 18 18 17 15 11 11 14 9 2 2 1 2 4 3 1 2 2 2 5 8 9 10 9 7 8 8 6 6 5 5 7 6 5 6 7 6 3 2 3 3 4 4 5 3 2 1 4 3 2 1 4 1 3 4 3 4 2 2 1 3 1 1 4 5 4 1 1 4 4 3 7 5 1 6 8 8 9 9 8 10 12 11 10
25 22 18 16 18 20 19 18 17 14 11 10 5 1 1 2 3 4 3 4 5 5 5 7 10 9 9 8 6 8 6 5 7 6 5 5 4 4 5 7 8 5 4 2 1 0 2 5 4 3 1 5 5 4 5 4 3 3 4 4 5 4 3 3 2 2 2 4 5 2 1 1 2 4 5 5 3 5 9 8 8 8 8 10 11 12 11 9
24 20 16 15 17 19 18 16 16 14 9 5 2 1 2 3 3 3 4 5 6 8 7 8 7 7 6 5 6 9 6 3 7 6 4 5 4 4 4 4 7 5 3 2 2 1 2 4 5 6 6 7 6 4 5 3 3 3 1 2 2 4 5 3 3 5 5 2 3 2 2 2 2 5 6 3 2 8 8 7 8 8 9 12 10 9 9 8
22 19 15 14 17 18 16 14 15 13 6 0 0 2 3 4 4 3 3 6 6 7 7 3 3 5 5 2 4 8 6 6 6 4 2 4 5 6 7 6 6 6 4 4 2 1 2 5 5 6 10 8 5 2 2 2 2 2 2 0 2 5 6 4 2 2 3 2 2 3 3 1 0 4 5 3 4 7 8 8 9 9 10 11 9 8 8 7
23 18 11 13 18 18 15 12 12 12 6 2 2 3 3 4 7 7 6 9 11 9 6 2 1 2 4 3 3 4 2 4 5 4 2 3 4 4 5 6 7 8 6 4 1 1 2 4 7 3 5 5 4 3 3 3 4 2 2 4 3 2 4 4 1 2 2 1 3 4 3 1 1 2 5 2 3 6 7 9 10 10 11 11 9 9 8 8
20 13 10 17 22 20 17 13 14 12 5 2 4 4 4 6 8 9 9 10 12 9 4 1 1 2 3 3 3 3 1 2 1 3 2 2 3 3 4 2 4 4 3 5 3 1 2 1 7 6 4 2 1 2 2 4 1 2 4 5 1 3 1 1 2 0 0 1 3 3 2 1 2 2 5 4 3 5 6 8 10 10 10 10 9 9 9 8
13 5 5 14 17 16 19 19 15 8 3 3 4 3 4 6 9 11 12 12 11 8 5 3 2 3 4 4 3 5 4 3 3 4 2 1 4 2 3 3 1 3 5 5 3 1 2 2 4 6 6 6 4 1 2 2 4 2 3 3 1 4 2 1 2 3 3 2 2 3 3 2 1 3 2 3 4 7 7 7 7 9 9 9 8 8 8 8
7 1 5 13 13 12 18 17 10 3 2 4 4 4 5 7 9 11 13 12 9 4 2 3 4 3 3 3 2 4 5 3 2 1 2 3 3 2 1 2 1 1 2 3 3 2 2 3 2 6 8 7 3 1 2 2 1 1 2 2 2 1 2 1 2 1 2 2 1 1 2 3 4 2 2 2 2 7 9 8 5 7 10 9 8 8 7 7
4 1 6 7 4 18 18 10 3 2 3 4 4 6 8 7 9 11 12 12 6 2 3 5 6 4 4 5 4 3 2 0 1 0 3 4 1 0 4 4 2 3 3 4 3 2 2 2 1 3 5 3 5 6 5 2 2 3 2 3 2 1 3 3 3 3 1 3 3 3 1 5 5 1 1 4 4 5 10 8 4 6 10 9 8 8 7 7
2 1 6 1 16 20 11 3 3 3 3 4 5 7 8 7 9 10 11 10 5 0 1 3 5 5 4 3 4 4 3 1 0 1 4 2 4 4 3 4 4 4 4 5 3 1 1 3 2 1 3 4 8 10 10 9 5 1 3 4 4 3 4 4 1 3 2 1 3 4 1 5 5 1 2 4 4 4 8 9 7 7 9 9 8 7 7 7
2 4 11 4 11 11 5 1 4 2 3 5 7 10 10 8 8 9 8 5 3 3 3 2 4 5 4 2 2 3 3 2 3 3 1 2 6 7 5 8 9 8 5 3 2 2 2 3 2 2 4 4 8 10 9 10 8 4 0 3 3 2 4 5 4 3 2 2 3 3 0 4 5 4 2 4 1 4 8 9 9 7 6 8 8 7 7 7
3 4 9 8 7 7 3 3 4 4 4 6 7 9 9 8 9 9 8 4 2 3 3 3 4 4 3 3 3 4 4 2 3 5 3 2 5 8 7 7 8 7 3 2 1 0 1 1 2 1 3 5 6 7 7 7 6 3 3 4 4 2 4 3 1 2 1 1 3 4 1 3 5 5 2 3 4 6 7 6 8 7 6 6 7 6 7 7
4 2 3 6 7 5 2 3 4 4 5 6 6 5 6 7 8 8 7 5 2 3 4 4 5 5 5 5 4 5 5 1 1 4 4 2 2 5 7 8 9 6 2 4 5 3 1 1 3 4 2 1 1 0 2 5 5 3 5 5 4 4 4 3 2 3 1 3 3 4 2 4 4 6 6 6 7 8 7 6 7 6 5 5 6 5 6 6
3 2 3 4 3 1 2 3 2 3 5 4 4 5 5 6 6 6 7 4 3 6 6 6 5 5 5 6 5 5 6 5 3 4 4 4 2 1 6 10 10 8 5 7 8 5 2 1 2 3 5 5 4 3 3 4 4 4 6 7 6 5 4 5 3 1 3 1 3 1 5 3 2 4 6 6 7 7 6 6 6 5 4 5 6 6 5 5
2 1 4 4 4 4 3 4 5 4 5 3 2 3 4 5 5 4 4 3 5 9 7 7 6 5 5 7 4 2 4 6 6 6 5 6 5 4 6 10 9 8 7 7 5 4 3 1 1 2 3 3 4 7 8 8 6 6 5 6 7 6 5 5 1 4 3 4 2 3 4 4 2 1 5 5 6 7 6 7 7 7 7 6 5 7 6 6
3 1 3 3 3 4 4 5 5 5 7 5 2 4 7 7 7 5 4 3 4 8 5 5 8 9 10 10 5 3 3 3 5 6 5 5 6 6 5 7 6 6 6 4 3 4 4 1 3 2 4 5 5 6 7 7 7 6 5 5 5 6 7 5 2 4 2 4 5 5 1 0 3 1 5 5 5 5 5 5 6 7 9 8 7 7 7 7
4 2 4 5 3 4 6 7 6 5 7 7 5 5 6 5 6 5 5 4 4 6 6 5 10 12 13 12 8 5 6 4 4 4 4 5 4 4 4 4 2 2 4 3 2 3 4 1 2 1 2 5 5 6 7 7 7 7 7 6 4 6 7 6 4 2 2 2 4 2 3 1 3 2 5 4 5 6 6 5 3 1 3 6 8 8 9 9
4 2 4 5 4 5 6 7 6 3 5 8 6 6 7 6 5 4 5 6 4 3 5 7 9 11 11 13 11 7 7 6 4 4 5 6 5 4 3 2 2 3 3 2 2 3 3 1 1 4 4 5 5 6 7 7 7 6 7 8 6 6 6 5 5 5 4 3 2 6 7 3 3 4 7 7 8 8 8 9 9 6 5 1 2 4 7 9
9 6 6 4 4 6 6 6 5 3 5 6 5 6 7 9 9 6 7 11 10 7 7 8 9 9 9 13 12 8 9 9 6 6 6 4 3 3 3 3 3 4 3 2 2 3 3 1 2 5 3 3 4 6 6 7 8 7 7 6 5 5 4 2 3 4 4 4 6 9 6 5 4 5 8 7 9 9 7 8 9 8 8 8 7 7 6 4
15 10 9 4 3 5 4 3 6 6 4 5 6 7 7 10 13 10 4 7 12 12 10 10 10 7 7 10 9 7 9 10 8 8 6 4 5 5 4 6 6 4 2 1 2 2 3 3 1 3 2 2 3 4 6 7 8 5 4 3 1 2 3 4 4 5 6 5 4 5 2 5 4 6 7 7 8 8 7 8 8 8 9 9 9 10 9 5
Wind_Direction
322 321 319 317 316 315 314 313 311 310 311 311 310 308 305 305 304 303 303 302 306 306 308 308 305 310 311 315 316 319 327 323 317 300 258 248 243 232 250 260 266 216 221 250 255 249 257 239 228 239 244 247 235 222 256 258 254 253 212 213 242 242 250 255 253 265 277 340 23 19 36 62 33 18 4 30 79 116 93 87 85 84 99 117 122 131 138 145
319 318 318 317 315 312 312 312 310 309 309 309 310 310 307 306 304 304 305 305 307 307 309 310 308 311 310 314 318 329 334 320 304 278 259 253 243 233 237 246 254 233 221 238 242 231 237 235 218 224 229 233 228 210 219 225 227 232 207 203 224 231 245 259 260 277 319 329 7 28 29 59 44 21 13 359 342 26 87 92 91 94 93 104 121 130 136 140
319 318 317 315 314 312 312 310 310 309 308 309 310 310 308 307 305 306 307 307 306 307 308 308 311 311 311 313 324 343 331 312 293 264 265 253 227 223 232 243 243 234 235 239 238 230 236 247 231 214 204 225 226 220 216 199 211 218 214 232 242 245 254 262 269 288 318 330 13 40 20 22 35 31 85 20 340 348 100 125 111 114 122 127 132 134 137 137
319 317 315 314 312 312 311 310 310 310 309 310 309 310 309 307 306 306 307 306 304 306 306 309 313 309 313 321 336 348 322 305 278 247 263 213 207 210 220 232 234 238 245 244 243 244 257 270 261 229 205 223 221 231 234 210 214 205 198 223 245 255 266 269 278 308 347 17 22 22 11 10 5 359 116 75 337 317 118 144 144 144 143 144 145 141 141 137
319 317 315 313 312 311 311 310 308 308 307 306 307 309 309 309 307 306 307 308 307 307 308 311 312 310 318 330 346 346 324 326 241 219 173 166 191 201 214 226 234 238 242 242 245 255 265 272 270 252 225 233 229 234 241 223 216 222 219 219 236 246 259 273 283 316 26 34 20 1 350 1 337 320 186 177 216 251 190 153 149 150 149 148 147 141 139 135
318 316 314 312 311 310 310 309 306 306 305 304 306 306 308 310 306 308 309 310 311 309 309 310 310 319 328 334 350 344 332 250 289 238 163 158 178 197 212 222 226 225 229 233 240 254 264 263 257 255 239 240 240 245 254 237 208 223 250 230 236 245 251 274 287 299 12 19 358 355 326 330 319 297 260 279 186 118 127 134 130 137 141 139 139 138 136 133
318 314 312 312 311 309 308 307 306 306 306 306 306 306 306 305 304 306 307 310 312 309 308 308 314 330 336 343 359 325 243 264 286 253 176 170 179 198 204 206 207 205 206 217 233 243 257 257 243 234 242 236 237 246 255 253 225 222 244 237 241 251 261 271 280 294 344 23 339 358 342 320 297 296 325 16 91 102 108 112 114 117 108 113 123 126 125 124
318 313 311 311 309 308 306 305 308 307 308 308 307 307 306 305 305 304 305 307 309 312 310 308 320 335 344 359 353 259 233 254 259 210 181 184 184 191 188 188 195 193 193 213 232 241 254 253 231 223 244 235 234 238 244 255 246 231 231 234 242 258 275 281 280 289 305 334 334 318 306 280 273 286 321 73 106 109 108 108 111 106 94 93 98 108 113 113
317 313 311 310 308 306 304 305 307 307 308 308 308 310 309 307 305 303 305 305 307 312 310 310 326 340 354 351 311 302 265 227 208 172 171 189 182 175 176 179 189 187 194 222 234 243 255 247 223 218 232 242 249 252 257 264 249 232 230 229 235 252 274 281 279 271 277 275 203 245 251 257 266 262 275 131 120 120 115 111 112 112 113 111 106 112 115 116
318 312 311 309 305 303 303 304 305 306 306 307 311 313 314 312 307 306 303 302 304 306 309 319 330 354 353 305 269 316 276 190 146 140 158 176 167 166 173 177 186 186 206 231 234 240 245 242 241 231 235 250 263 272 279 272 269 265 255 259 258 254 258 265 271 258 261 253 199 206 244 254 246 227 257 132 128 129 119 116 116 118 123 121 114 112 113 117
319 312 310 307 302 302 302 302 303 304 304 308 314 315 317 317 314 313 306 303 301 301 316 333 343 12 337 294 244 252 266 199 141 139 149 161 166 172 175 181 192 193 210 235 238 240 242 250 270 293 251 303 318 282 273 272 286 296 296 295 282 283 274 273 283 277 273 253 189 188 240 254 237 212 184 136 136 130 121 121 121 119 118 117 112 111 112 114
321 316 312 307 302 301 300 300 303 304 306 310 313 315 317 319 320 317 309 303 298 298 327 339 20 36 334 293 232 240 263 251 155 137 146 165 181 186 180 183 200 206 215 233 243 247 253 265 297 349 292 328 316 282 295 301 298 279 286 302 291 295 279 270 273 269 271 257 190 191 247 263 255 208 141 136 138 126 123 124 120 117 116 116 111 112 115 114
325 321 314 306 301 299 297 300 303 304 306 309 312 316 318 322 325 322 313 305 298 300 320 326 59 39 332 264 243 251 267 261 171 141 156 177 195 204 203 202 207 221 231 246 268 281 275 264 295 336 297 311 298 306 314 305 302 256 266 280 281 297 269 248 238 242 242 237 202 180 244 263 266 193 142 144 141 130 129 126 117 114 117 119 118 116 119 118
330 324 315 304 298 296 298 300 304 306 306 310 314 317 320 326 328 325 318 308 302 299 318 344 84 79 302 246 276 279 261 244 185 165 175 184 203 211 220 227 230 239 246 260 280 300 299 285 325 320 292 292 281 308 308 300 306 280 281 272 243 258 263 238 217 223 223 226 187 156 214 254 269 208 160 155 141 133 135 131 123 122 124 128 131 127 131 123
334 328 321 312 301 296 298 301 304 305 306 311 314 317 322 326 323 321 318 313 305 282 298 324 208 162 314 276 291 281 230 221 204 203 196 192 210 217 218 230 244 259 264 267 274 293 303 309 329 295 268 269 261 277 285 284 280 246 241 272 233 208 258 248 217 210 211 220 159 148 222 250 262 234 171 157 142 134 136 137 129 128 127 131 136 134 141 122
341 337 330 324 315 303 301 302 302 304 307 310 313 320 324 322 317 314 316 308 298 258 227 313 210 193 304 285 294 269 207 214 219 210 200 197 212 221 213 215 230 240 250 255 258 280 290 281 255 251 253 267 262 257 273 292 291 242 200 246 236 214 251 253 219 197 198 199 140 154 215 244 266 242 160 158 149 135 136 138 131 129 129 133 137 141 144 134
348 346 340 335 328 317 310 305 304 306 307 308 314 321 323 322 314 309 321 305 282 243 230 279 240 191 264 277 295 281 195 207 223 203 193 203 216 218 199 193 222 221 233 245 240 252 264 200 200 241 254 255 256 263 277 274 275 284 238 239 253 242 233 217 213 191 187 171 143 174 209 236 278 283 153 154 142 133 133 133 131 131 132 137 140 151 150 147
353 349 347 344 335 326 318 311 311 310 307 311 319 322 320 318 305 299 331 48 82 325 264 278 291 188 261 257 247 236 200 202 216 196 190 207 223 224 195 179 220 210 209 242 236 228 209 195 204 232 277 262 248 233 223 241 251 304 286 259 280 275 230 188 197 203 184 159 148 182 224 251 269 266 172 145 138 136 133 130 132 137 139 143 144 158 160 156
357 350 348 346 338 331 324 318 317 311 309 314 321 322 315 311 300 285 248 160 122 10 274 231 197 172 262 238 217 228 213 186 193 189 191 206 220 233 215 191 217 207 195 224 222 212 184 208 243 241 265 254 240 218 214 247 288 320 309 295 298 295 264 169 159 181 162 145 158 176 218 246 235 230 218 138 136 139 141 134 132 139 142 146 149 156 162 164
1 352 346 346 340 334 327 322 320 313 312 321 334 336 322 316 338 14 194 211 213 227 257 228 197 231 277 285 215 213 189 158 178 194 195 203 207 228 229 200 224 220 208 219 217 212 173 183 234 225 232 233 218 193 227 318 352 333 327 322 321 322 319 55 114 138 94 108 179 210 246 253 234 241 246 160 138 138 144 138 133 144 151 153 155 159 163 171
2 356 345 342 340 334 330 327 321 316 315 322 340 345 296 293 301 3 178 223 225 224 246 250 231 235 253 274 240 174 152 151 201 207 191 196 200 207 195 190 232 246 224 231 242 237 178 195 233 230 231 228 201 142 79 12 9 356 348 331 327 329 318 1 77 81 61 76 313 335 326 291 298 306 288 169 130 136 147 145 146 157 165 164 160 161 166 171
2 358 346 336 336 333 329 326 318 315 311 308 317 243 250 276 285 336 3 263 254 233 237 248 249 246 245 259 247 188 161 180 207 223 187 177 186 196 178 180 214 244 229 230 242 232 203 227 241 235 230 223 207 84 64 42 24 8 0 340 314 309 324 344 21 57 63 64 321 346 354 316 314 329 313 152 122 140 155 156 158 161 166 170 164 162 165 164
0 358 350 334 331 330 324 323 316 307 298 280 250 230 265 288 300 344 6 291 284 261 242 237 243 249 248 256 236 188 190 190 193 223 183 169 188 195 193 197 206 226 227 220 213 190 202 240 241 226 201 194 194 49 43 31 16 331 306 321 293 291 348 347 326 11 59 80 48 11 355 315 318 341 324 303 117 136 152 154 161 165 167 172 168 162 161 159
358 358 353 338 324 324 323 319 309 300 296 281 262 260 278 294 309 5 27 267 279 269 253 236 232 235 240 253 221 178 212 205 200 206 174 173 197 179 204 233 221 231 228 213 207 207 223 232 224 170 146 158 105 58 39 30 354 302 236 216 264 285 316 337 290 356 26 12 23 43 8 317 316 335 302 306 80 127 142 141 155 175 175 165 156 158 157 153
357 356 353 342 323 317 322 314 303 314 314 284 272 280 288 296 324 25 35 275 273 261 243 234 230 221 226 237 215 190 211 210 224 209 170 176 194 180 207 228 221 245 248 231 213 212 234 228 147 105 109 125 102 113 179 155 279 303 256 221 232 263 289 284 240 49 41 347 307 97 54 301 301 304 273 291 37 161 164 144 164 185 167 147 144 151 153 144
352 354 352 347 329 314 325 311 303 333 319 271 282 305 321 341 4 24 30 285 283 257 205 190 184 196 208 213 198 196 218 221 227 214 174 175 194 198 210 221 211 233 249 253 233 208 227 211 126 109 78 41 61 358 283 210 207 289 266 273 271 267 289 296 318 58 91 274 255 142 126 267 299 304 275 274 266 226 193 155 167 158 121 136 145 146 149 145
347 349 350 347 334 316 313 293 310 329 308 276 306 332 360 3 1 15 49 5 283 237 182 168 139 180 189 186 177 165 221 228 216 206 172 172 196 196 203 248 261 241 254 323 1 289 166 114 102 116 99 65 77 288 260 211 189 240 240 278 323 320 321 325 338 322 199 223 279 180 145 192 286 286 282 287 282 255 194 152 154 139 124 138 145 146 157 160
342 343 345 345 338 311 274 286 310 320 292 292 315 337 357 351 351 24 75 8 283 233 161 195 154 176 183 188 184 182 241 242 223 190 155 165 191 167 188 244 267 277 287 240 216 256 145 135 162 145 111 137 201 239 241 201 190 233 221 213 324 1 344 338 343 306 231 121 315 299 163 171 271 267 283 301 295 271 139 132 132 127 129 148 155 159 164 160
338 339 338 339 336 315 286 282 281 297 309 313 326 339 342 341 351 47 78 116 286 329 152 139 131 180 212 203 194 209 247 253 231 197 146 161 196 184 182 239 274 300 298 258 214 221 182 170 171 142 124 185 219 239 248 230 209 210 206 132 51 25 323 318 315 307 9 89 261 280 239 184 271 269 280 313 296 183 121 102 117 97 65 146 158 153 142 141
332 333 331 331 330 329 323 286 262 301 335 336 333 332 331 336 16 78 57 256 275 291 134 94 12 182 190 209 200 205 241 266 206 188 155 154 208 196 182 258 272 295 302 309 291 244 227 167 137 122 155 197 256 259 263 272 235 150 88 25 25 343 285 272 256 259 47 335 250 253 274 268 275 281 275 278 262 182 141 61 65 79 54 107 145 149 146 153
326 326 324 320 314 313 327 276 265 327 353 350 339 335 339 351 84 140 208 297 295 291 136 156 199 192 193 211 213 195 220 254 226 179 165 169 207 182 179 313 272 287 317 330 319 278 269 112 132 187 191 192 279 292 297 298 293 74 69 39 21 336 324 320 317 49 106 264 265 322 2 331 264 268 260 254 236 131 126 105 95 97 76 85 125 145 148 127
320 319 313 305 298 281 256 244 267 324 343 344 342 342 16 21 213 204 236 348 322 288 313 257 212 205 197 203 227 213 197 229 242 211 177 168 179 183 178 208 214 323 318 301 312 302 301 268 210 215 200 190 192 285 312 312 315 97 106 91 66 324 356 8 339 16 209 244 259 319 17 25 249 247 276 298 274 145 121 118 112 106 97 85 92 99 100 92
318 316 305 291 285 273 257 254 270 292 318 335 342 351 78 94 227 228 226 295 254 222 320 294 258 237 205 192 219 226 200 199 221 227 207 177 167 187 193 202 205 181 210 259 345 342 322 318 299 293 229 186 163 153 275 301 296 147 166 155 153 166 54 349 286 312 271 278 279 285 37 23 294 272 299 323 307 139 94 101 111 103 101 94 84 87 89 88
317 315 307 290 276 267 260 260 263 266 293 324 348 34 93 192 241 256 248 263 257 239 228 254 275 272 229 196 199 219 208 196 206 206 212 196 162 171 195 210 218 194 163 191 1 64 295 311 294 289 275 171 177 185 184 215 254 213 202 154 147 156 144 183 215 162 213 275 301 317 132 162 285 267 270 304 341 66 74 87 96 85 81 84 83 87 89 85
317 316 312 296 276 264 257 254 252 252 273 317 12 136 196 217 246 248 253 258 253 260 247 231 265 289 260 220 210 216 195 189 238 230 205 210 187 172 187 213 229 213 141 160 218 198 246 259 226 222 223 187 177 197 192 205 273 280 322 68 144 175 153 155 183 177 178 231 314 287 213 185 197 258 269 263 64 73 76 71 70 69 72 82 86 86 90 91
321 320 309 286 272 264 255 248 242 234 227 186 280 231 210 230 254 241 271 282 275 305 319 281 261 277 267 261 238 229 186 161 216 234 224 218 195 182 188 192 208 206 164 154 207 212 211 257 264 217 210 194 164 199 206 143 180 295 347 9 217 170 133 122 219 216 133 104 278 237 237 328 255 271 275 212 129 101 102 84 73 73 75 82 84 81 84 83
327 324 306 273 266 261 255 241 218 206 189 153 203 237 236 246 259 259 285 299 296 308 326 344 13 312 291 294 279 256 187 155 188 200 222 242 235 243 228 200 190 194 183 150 177 297 142 257 300 298 219 208 180 231 314 60 104 70 308 267 292 36 91 102 116 333 54 126 263 229 202 185 130 271 298 278 146 120 112 103 97 90 82 83 83 84 84 78
324 316 293 269 257 244 238 223 194 180 165 190 223 244 261 257 265 277 291 296 297 303 307 286 152 198 261 279 291 299 184 148 215 226 215 194 227 295 330 267 195 171 120 95 111 325 64 297 300 321 315 301 136 178 314 347 52 156 234 264 6 62 12 41 120 179 166 196 276 268 220 125 135 228 300 327 56 76 72 88 101 97 92 92 89 86 84 78
314 304 283 273 264 241 222 203 185 173 166 218 231 239 254 259 262 268 270 269 275 284 281 279 265 215 221 227 254 286 269 215 219 238 243 231 239 278 2 330 307 42 36 56 95 223 87 104 283 308 337 356 13 111 176 299 315 282 259 293 57 133 162 201 169 168 165 181 253 306 343 356 251 249 310 10 63 75 55 48 82 101 99 93 91 88 84 84
306 280 266 287 282 229 196 178 166 167 203 215 230 244 257 267 263 260 264 268 267 262 265 306 328 315 284 288 255 259 263 244 228 252 241 226 231 250 269 260 247 123 93 82 74 3 41 91 245 302 345 6 349 276 172 168 254 6 31 16 341 1 80 60 333 1 115 135 188 74 18 287 267 276 322 0 94 108 87 52 52 96 97 87 88 91 90 94
305 285 272 300 151 158 153 138 144 188 209 231 236 246 256 264 271 275 281 288 294 28 11 325 314 306 304 327 327 285 277 293 78 1 249 231 115 43 256 245 203 174 141 100 69 17 32 94 173 302 340 335 284 299 327 345 144 140 131 144 167 131 85 69 344 322 73 126 159 134 157 264 258 243 343 9 32 102 111 103 94 100 98 95 94 93 96 103
255 269 279 122 130 140 128 108 219 193 201 240 235 246 259 257 263 270 274 284 295 287 299 293 290 290 280 290 309 312 334 10 112 227 241 224 83 70 337 355 49 78 88 93 85 40 80 100 87 299 273 275 290 307 320 323 322 260 168 152 136 123 113 113 189 279 284 188 149 119 146 261 264 262 65 48 23 57 104 116 117 104 102 105 103 98 96 96
231 297 299 277 150 144 115 180 257 264 225 237 243 250 258 257 260 263 259 269 291 268 258 252 272 284 285 286 297 313 329 338 316 307 301 101 98 92 45 21 39 48 48 68 56 351 11 76 76 300 287 300 310 312 315 321 330 332 77 93 94 140 140 144 183 202 224 227 151 116 220 271 282 293 104 125 138 77 91 108 113 107 105 106 105 106 105 100
289 275 297 284 204 173 144 197 250 268 250 248 247 250 260 265 265 265 266 271 288 294 298 293 289 296 324 344 348 341 347 26 350 337 357 70 107 106 92 66 60 54 31 39 71 287 318 66 97 34 341 339 332 332 336 340 354 355 333 39 65 36 47 60 6 52 55 287 114 112 218 266 285 307 20 80 68 67 78 96 105 104 104 107 107 107 111 113
312 250 272 270 231 201 183 201 212 237 267 274 271 278 285 283 278 271 276 278 279 338 340 315 329 354 344 338 349 342 335 336 5 343 348 16 118 128 125 110 93 88 75 52 61 88 145 123 109 120 150 247 271 333 4 342 352 354 334 1 31 6 29 82 63 57 62 323 36 97 186 260 304 347 19 41 58 73 79 73 75 75 80 104 115 114 114 114
322 294 329 317 286 317 281 277 287 269 275 282 292 297 284 286 299 300 306 314 14 17 346 310 340 11 350 347 2 351 334 326 342 1 3 6 356 164 129 111 99 99 91 64 61 68 80 65 87 142 178 199 232 264 322 342 336 327 330 339 343 344 32 74 63 105 172 349 345 166 154 168 292 21 40 36 48 73 100 103 98 97 96 106 119 124 125 116
346 333 12 351 316 344 350 339 354 329 301 306 315 319 321 320 320 323 333 351 43 35 359 324 358 16 344 346 350 329 324 325 347 11 13 11 359 0 81 94 92 91 84 76 86 95 73 12 308 265 249 259 279 299 317 323 309 300 312 318 316 330 10 35 343 236 161 94 315 273 99 111 235 41 66 61 53 58 91 124 139 140 135 138 142 143 143 130
3 348 16 8 313 329 344 340 343 330 326 337 357 359 357 353 352 359 352 337 33 46 26 341 4 10 358 1 3 343 333 329 358 11 11 19 6 348 30 73 93 105 93 80 102 111 109 195 254 274 288 294 295 302 310 308 299 304 307 303 318 350 360 356 272 233 127 122 221 247 43 55 245 53 70 92 94 76 92 133 158 155 148 155 161 160 162 158
4 338 342 359 343 305 299 313 318 318 342 360 9 0 358 7 6 355 349 344 358 35 51 27 10 7 10 25 43 30 8 8 18 11 359 7 3 340 11 49 72 97 90 81 54 76 102 177 262 5 335 330 338 330 329 325 311 308 311 314 0 35 16 356 324 304 61 140 210 175 72 306 248 86 73 83 81 62 51 55 64 110 157 168 175 181 180 166
352 316 335 341 329 312 306 320 320 318 11 21 21 358 348 2 6 346 11 26 2 0 50 50 21 8 18 39 51 38 12 11 16 11 3 4 1 355 9 18 343 353 32 70 25 33 76 144 1 52 26 345 340 326 324 326 318 320 325 327 357 19 2 353 347 349 18 4 4 66 59 323 287 55 57 53 54 49 40 38 34 10 349 5 173 217 211 173
342 318 336 315 303 325 319 329 354 40 35 15 5 359 353 2 13 18 30 33 29 23 41 52 34 20 33 43 39 17 355 351 345 342 347 351 338 326 329 332 351 4 11 46 45 56 93 122 18 58 47 311 315 326 331 347 354 352 340 332 359 15 1 359 3 16 37 12 15 43 33 298 297 44 53 54 56 53 40 35 37 27 19 29 32 1 307 218
353 336 344 322 273 312 311 349 29 45 30 355 356 5 3 11 23 31 29 19 23 25 36 52 44 30 41 35 16 348 340 334 320 314 316 319 313 308 308 314 325 341 331 25 67 101 118 110 94 84 91 256 292 338 350 12 12 340 304 309 343 51 56 43 16 30 60 67 56 55 355 295 330 34 47 50 55 56 42 35 45 46 33 29 29 17 355 352